[[{"header":{"parameterUnit":"m.s-1","parameterCategory":1,"la1":30.2991,"la2":30.254,"lo1":-89.0895,"lo2":-89.0444,"dy":0.0017,"dx":0.0017,"nx":28,"ny":28,"refTime":"2025-01-07T09:00:00:Z","depth":0,"parameterNumber":2,"parameterNumberName":"U-component_of_WINDS"},"data":[0,0,0,0,0,0,0,0,0,0,0,0,0,0,0,0,0,0,0,0,0,0,0,0,0,0,0,0,0,0,0,0,0,0,0,0,0,0,0,0,0,0,0,0,0,0,0,0,0,0,0,0,0,0,0,0,0,0,-1.1154,-1.1155,0,-1.125,-1.1251,-1.1252,-1.1208,-1.1206,-1.1203,-1.1201,-1.1304,-1.1309,-1.1314,0,0,0,0,0,0,0,0,0,0,0,0,0,-1.0933,-1.0937,-1.1153,-1.1155,-1.1156,-1.125,-1.1251,-1.1253,-1.1209,-1.1206,-1.1203,-1.12,-1.1302,-1.1308,-1.1314,0,0,0,0,0,0,0,0,0,0,0,0,0,-1.1029,-1.0939,-1.1153,-1.1145,-1.1145,-1.125,-1.1251,-1.1253,-1.1209,-1.1206,-1.1202,-1.1198,-1.13,-1.1308,-1.1315,-1.1434,0,0,-1.1338,-1.1341,0,0,0,0,0,0,0,0,-1.1024,-1.1037,-1.1145,-1.1146,-1.1146,-1.1213,-1.1211,-1.1314,-1.121,-1.1185,-1.1201,-1.1197,-1.1277,-1.1286,-1.1312,-1.1439,-1.1444,-1.1339,-1.1343,-1.1346,-1.1349,0,0,0,0,0,0,0,-1.1017,-1.1033,-1.1192,-1.1147,-1.1147,-1.1137,-1.1147,-1.1231,-1.125,-1.1187,-1.1184,-1.1196,-1.1277,-1.1305,-1.1315,-1.1445,-1.1338,-1.1345,-1.135,-1.1353,-1.1674,-1.1678,0,0,0,0,0,0,-1.101,-1.1028,-1.1189,-1.1195,-1.1075,-1.1144,-1.1155,-1.1196,-1.1249,-1.1254,-1.1199,-1.1193,-1.1294,-1.1306,-1.1318,-1.1462,-1.1346,-1.1353,-1.1358,-1.167,-1.1675,-1.168,0,0,0,0,0,0,-1.1006,-1.1025,-1.1185,-1.111,-1.113,-1.1152,-1.1198,-1.1199,-1.1228,-1.1258,-1.1262,-1.1224,-1.1292,-1.1307,-1.1405,-1.1465,-1.1357,-1.1364,-1.1666,-1.1672,-1.1677,-1.175,0,0,0,0,0,0,-1.1,-1.1024,-1.1069,-1.1112,-1.1134,-1.127,-1.1201,-1.1204,-1.1241,-1.1234,-1.1283,-1.1288,-1.129,-1.1395,-1.1413,-1.1473,-1.1369,-1.166,-1.1668,-1.1676,-1.1743,-1.1758,-1.1771,0,0,0,0,0,-1.0992,-1.1086,-1.1071,-1.1091,-1.1191,-1.1274,-1.1287,-1.1286,-1.1246,-1.1292,-1.1311,-1.1286,-1.1455,-1.1405,-1.1425,-1.1489,-1.1657,-1.1666,-1.1675,-1.1736,-1.1755,-1.1771,0,0,0,0,0,0,-1.1052,-1.1092,-1.1076,-1.1187,-1.1227,-1.1266,-1.1324,-1.1306,-1.136,-1.1352,-1.135,-1.1362,-1.1463,-1.1485,-1.1429,-1.1607,-1.155,-1.1563,-1.1589,-1.1607,-1.1621,-1.1615,-1.1376,0,0,0,0,0,-1.1077,-1.114,-1.1172,-1.1267,-1.1288,-1.1303,-1.1339,-1.1335,-1.1377,-1.1394,-1.1421,-1.1464,-1.1526,-1.1567,-1.1626,-1.1744,-1.1755,-1.1798,-1.1812,-1.1824,-1.1836,-1.1901,-1.1921,-1.171,-1.1709,-1.1709,0,0,-1.1132,-1.1162,-1.1202,-1.128,-1.1311,-1.1377,-1.1318,-1.139,-1.144,-1.1406,-1.15,-1.1521,-1.1568,-1.1677,-1.1726,-1.1698,-1.1896,-1.1835,-1.1844,-1.1851,-1.1912,-1.1932,-1.195,-1.1716,-1.1715,-1.1714,0,0,-1.1266,-1.1294,-1.1377,-1.1408,-1.1455,-1.1463,-1.1483,-1.1524,-1.1537,-1.163,-1.1606,-1.1665,-1.1772,-1.1807,-1.1839,-1.1984,-1.1964,-1.2003,-1.2079,-1.2141,-1.2158,-1.2173,-1.2226,-1.2245,-1.2015,-1.2015,-1.2015,0,-1.1329,-1.1427,-1.1422,-1.1496,-1.1531,-1.1501,-1.1585,-1.1616,-1.168,-1.1706,-1.1673,-1.1807,-1.1836,-1.1953,-1.1988,-1.2014,-1.2038,-1.1999,-1.2156,-1.2171,-1.2184,-1.2235,-1.2255,-1.202,-1.2019,-1.2019,-1.2018,0,-1.1502,-1.157,-1.1631,-1.1693,-1.1734,-1.1813,-1.1821,-1.1863,-1.1855,-1.1867,-1.1963,-1.1997,-1.2063,-1.209,-1.2083,-1.2205,-1.2187,-1.2155,-1.2098,-1.2209,-1.2257,-1.2276,-1.2026,-1.2025,-1.2023,-1.2022,0,0,-1.168,-1.1735,-1.1758,-1.1785,-1.1833,-1.1886,-1.1963,-1.2026,-1.2063,-1.2108,-1.2173,-1.2264,-1.2234,-1.227,-1.2267,-1.2321,-1.2435,-1.2283,-1.2284,-1.2311,-1.2573,-1.2598,-1.2621,-1.242,-1.2424,-1.2427,-1.257,0,-1.1819,-1.1953,-1.195,-1.2075,-1.2139,-1.2109,-1.2177,-1.2214,-1.2227,-1.2283,-1.2297,-1.2362,-1.2317,-1.2339,-1.2392,-1.241,-1.2488,-1.2399,-1.2483,-1.2486,-1.2475,-1.2645,-1.2673,-1.2806,-1.2588,-1.2591,-1.2593,0,-1.1999,-1.2048,-1.218,-1.2218,-1.2244,-1.2305,-1.2361,-1.2415,-1.2456,-1.2462,-1.2501,-1.2488,-1.2567,-1.2505,-1.2614,-1.2554,-1.2588,-1.2602,-1.2607,-1.2617,-1.2548,-1.2662,-1.2848,-1.2869,-1.2622,-1.262,-1.2618,0,-1.2118,-1.2216,-1.2308,-1.2332,-1.2378,-1.2421,-1.2443,-1.248,-1.2517,-1.2567,-1.2591,-1.265,-1.2682,-1.2728,-1.2731,-1.2686,-1.2842,-1.278,-1.285,-1.285,-1.2887,-1.2885,-1.3083,-1.2904,-1.2904,-1.2904,-1.2903,0,-1.2275,-1.2357,-1.2361,-1.2418,-1.2509,-1.2504,-1.2594,-1.2611,-1.2645,-1.2705,-1.2682,-1.2739,-1.2739,-1.2797,-1.28,-1.2891,-1.2905,-1.2913,-1.2913,-1.2916,-1.2916,-1.294,-1.2932,-1.2909,-1.2908,-1.2907,-1.2906,0,-1.2424,-1.243,-1.2528,-1.2562,-1.2573,-1.2639,-1.2669,-1.2723,-1.2732,-1.2808,-1.2826,-1.2842,-1.2909,-1.2916,-1.2994,-1.2996,-1.3106,-1.3095,-1.3092,-1.3091,-1.3161,-1.3155,-1.3383,-1.3414,-1.3214,-1.3216,-1.3217,0,-1.2524,-1.2587,-1.2627,-1.2665,-1.2689,-1.275,-1.2787,-1.2784,-1.2824,-1.2875,-1.2923,-1.2987,-1.3039,-1.3148,-1.3167,-1.3226,-1.3218,-1.3294,-1.3227,-1.3228,-1.3221,-1.3218,-1.3225,-1.3308,-1.331,-1.3312,-1.3313,0,-1.2703,-1.2703,-1.2757,-1.2813,-1.2858,-1.2902,-1.2943,-1.2975,-1.2977,-1.3023,-1.3091,-1.3131,-1.3209,-1.3274,-1.3332,-1.3355,-1.3336,-1.3334,-1.3353,-1.3358,-1.3355,-1.3359,-1.3129,-1.3329,-1.3328,-1.3327,-1.3326,-1.3325,-1.2833,-1.2887,-1.2923,-1.2985,-1.3015,-1.3053,-1.3105,-1.3121,-1.3176,-1.324,-1.3234,-1.3309,-1.3347,-1.3423,-1.345,-1.3509,-1.3484,-1.3512,-1.3519,-1.3527,-1.3535,-1.3343,-1.3519,-1.3519,-1.3518,-1.3518,-1.3518,0,-1.3012,-1.3033,-1.309,-1.3147,-1.3195,-1.317,-1.3213,-1.3256,-1.3322,-1.3359,-1.3409,-1.3486,-1.3548,-1.3571,-1.3632,-1.3675,-1.3667,-1.3691,-1.3689,-1.3695,-1.3553,-1.3531,-1.3696,-1.3696,-1.3696,-1.3696,-1.3696,-1.3696,-1.3111,-1.3201,-1.3205,-1.3309,-1.333,-1.3402,-1.343,-1.3465,-1.3494,-1.3581,-1.3632,-1.3646,-1.3677,-1.374,-1.3795,-1.38,-1.3825,-1.3853,-1.3854,-1.3722,-1.3705,-1.3687,-1.3667,-1.3858,-1.3858,-1.3991,-1.3992,-1.3993]},{"header":{"parameterUnit":"m.s-1","parameterCategory":1,"la1":30.2991,"la2":30.254,"lo1":-89.0895,"lo2":-89.0444,"dy":0.0017,"dx":0.0017,"nx":28,"ny":28,"refTime":"2025-01-07T09:00:00:Z","depth":0,"parameterNumber":3,"parameterNumberName":"V-component_of_WINDS"},"data":[0,0,0,0,0,0,0,0,0,0,0,0,0,0,0,0,0,0,0,0,0,0,0,0,0,0,0,0,0,0,0,0,0,0,0,0,0,0,0,0,0,0,0,0,0,0,0,0,0,0,0,0,0,0,0,0,0,0,-6.1822,-6.1823,0,-6.193,-6.1931,-6.1933,-6.1833,-6.1829,-6.1825,-6.1821,-6.1928,-6.1934,-6.1941,0,0,0,0,0,0,0,0,0,0,0,0,0,-6.1524,-6.153,-6.1822,-6.1823,-6.1824,-6.193,-6.1931,-6.1933,-6.1833,-6.1829,-6.1824,-6.1819,-6.1926,-6.1933,-6.1941,0,0,0,0,0,0,0,0,0,0,0,0,0,-6.1645,-6.1532,-6.1821,-6.1788,-6.1786,-6.193,-6.1931,-6.1933,-6.1834,-6.1828,-6.1822,-6.1817,-6.1923,-6.1933,-6.1942,-6.2124,0,0,-6.1973,-6.1977,0,0,0,0,0,0,0,0,-6.1638,-6.1656,-6.1791,-6.179,-6.1788,-6.1862,-6.1865,-6.1997,-6.1836,-6.1816,-6.1821,-6.1814,-6.191,-6.1921,-6.1954,-6.2129,-6.2134,-6.1974,-6.198,-6.1984,-6.1987,0,0,0,0,0,0,0,-6.163,-6.1651,-6.1864,-6.1793,-6.1792,-6.1765,-6.1776,-6.189,-6.1895,-6.1817,-6.181,-6.1825,-6.1908,-6.1945,-6.1956,-6.2135,-6.1973,-6.1982,-6.1988,-6.1992,-6.2462,-6.2468,0,0,0,0,0,0,-6.1626,-6.1644,-6.1861,-6.1868,-6.1697,-6.1776,-6.1787,-6.1844,-6.1894,-6.1896,-6.183,-6.1819,-6.1931,-6.1945,-6.196,-6.2174,-6.1984,-6.1993,-6.1999,-6.2456,-6.2464,-6.2471,0,0,0,0,0,0,-6.162,-6.1646,-6.1857,-6.1754,-6.1779,-6.1787,-6.1852,-6.185,-6.1886,-6.1904,-6.1903,-6.1866,-6.1927,-6.1946,-6.2084,-6.2177,-6.1997,-6.2006,-6.2448,-6.2458,-6.2467,-6.2607,0,0,0,0,0,0,-6.1612,-6.1645,-6.1715,-6.1757,-6.1785,-6.1981,-6.1858,-6.1856,-6.1904,-6.1892,-6.1938,-6.194,-6.1924,-6.207,-6.2094,-6.2187,-6.2014,-6.244,-6.2452,-6.2464,-6.2594,-6.262,-6.2642,0,0,0,0,0,-6.1601,-6.1749,-6.1719,-6.1746,-6.1873,-6.1987,-6.2003,-6.1982,-6.1912,-6.1982,-6.1993,-6.1938,-6.2163,-6.2085,-6.2111,-6.2209,-6.2434,-6.2449,-6.2463,-6.2583,-6.2615,-6.2642,0,0,0,0,0,0,-6.1717,-6.1754,-6.1721,-6.1887,-6.1935,-6.197,-6.2057,-6.2017,-6.2084,-6.207,-6.204,-6.2052,-6.2198,-6.2217,-6.2129,-6.2386,-6.2287,-6.2307,-6.2368,-6.2399,-6.2423,-6.2415,-6.2022,0,0,0,0,0,-6.1762,-6.1853,-6.1879,-6.2023,-6.2049,-6.2049,-6.2098,-6.2078,-6.2125,-6.2145,-6.2166,-6.2213,-6.2293,-6.2347,-6.2422,-6.2596,-6.2603,-6.2676,-6.27,-6.272,-6.2738,-6.283,-6.2862,-6.2519,-6.2519,-6.2519,0,0,-6.1856,-6.1887,-6.1946,-6.2047,-6.2082,-6.2174,-6.2067,-6.217,-6.2238,-6.216,-6.2292,-6.2309,-6.2359,-6.2515,-6.2585,-6.2536,-6.2834,-6.2739,-6.2755,-6.2762,-6.2848,-6.2881,-6.2909,-6.2529,-6.2527,-6.2526,0,0,-6.2074,-6.2107,-6.223,-6.2267,-6.2321,-6.232,-6.235,-6.2391,-6.24,-6.2532,-6.2475,-6.2554,-6.2695,-6.2732,-6.277,-6.3001,-6.2953,-6.3027,-6.3154,-6.3243,-6.327,-6.3294,-6.3375,-6.3405,-6.3045,-6.3045,-6.3045,0,-6.2183,-6.2322,-6.2298,-6.2406,-6.2451,-6.2386,-6.2509,-6.2545,-6.2621,-6.2653,-6.2597,-6.2771,-6.28,-6.2964,-6.302,-6.3053,-6.3084,-6.3021,-6.3269,-6.3292,-6.3314,-6.3391,-6.3422,-6.3053,-6.3052,-6.3052,-6.3051,0,-6.2453,-6.255,-6.2642,-6.2718,-6.2774,-6.2889,-6.2881,-6.294,-6.2915,-6.292,-6.3054,-6.3087,-6.3167,-6.3204,-6.3181,-6.3364,-6.3332,-6.3273,-6.3172,-6.3355,-6.3427,-6.3457,-6.3066,-6.3063,-6.306,-6.3058,0,0,-6.2747,-6.2808,-6.2842,-6.2875,-6.293,-6.3003,-6.3114,-6.3194,-6.3244,-6.3298,-6.3389,-6.3509,-6.3455,-6.3497,-6.3477,-6.3556,-6.3736,-6.3487,-6.3487,-6.3531,-6.3938,-6.3982,-6.4017,-6.3704,-6.371,-6.3714,-6.3934,0,-6.2966,-6.3161,-6.3142,-6.3326,-6.3414,-6.3353,-6.3449,-6.3492,-6.3499,-6.3574,-6.358,-6.3666,-6.3588,-6.3613,-6.3688,-6.3698,-6.3817,-6.3682,-6.3787,-6.3791,-6.3776,-6.4055,-6.4102,-6.4307,-6.3962,-6.3967,-6.397,0,-6.3248,-6.3313,-6.3506,-6.3546,-6.3582,-6.367,-6.374,-6.3813,-6.3859,-6.3859,-6.3907,-6.3872,-6.3982,-6.3879,-6.4029,-6.3937,-6.3979,-6.399,-6.3997,-6.4006,-6.3892,-6.407,-6.4373,-6.4403,-6.4014,-6.4011,-6.4008,0,-6.3443,-6.3578,-6.3711,-6.3741,-6.3791,-6.3853,-6.3877,-6.3917,-6.3966,-6.4027,-6.4058,-6.4131,-6.4171,-6.4228,-6.4213,-6.414,-6.4366,-6.4262,-6.4367,-6.4367,-6.4417,-6.4414,-6.473,-6.4445,-6.4445,-6.4444,-6.4444,0,-6.3689,-6.3809,-6.3798,-6.388,-6.4012,-6.3989,-6.412,-6.4135,-6.4172,-6.4254,-6.4205,-6.4283,-6.4259,-6.4336,-6.4325,-6.4449,-6.4468,-6.4469,-6.4465,-6.4474,-6.4473,-6.45,-6.4485,-6.4452,-6.4451,-6.4449,-6.4448,0,-6.3929,-6.3926,-6.4067,-6.4103,-6.4114,-6.421,-6.424,-6.4316,-6.4318,-6.4423,-6.4446,-6.445,-6.4537,-6.4528,-6.4626,-6.4618,-6.4772,-6.4751,-6.4758,-6.4753,-6.4857,-6.4847,-6.5201,-6.5246,-6.4933,-6.4936,-6.4939,0,-6.4086,-6.4177,-6.4223,-6.4275,-6.4303,-6.4388,-6.4437,-6.4417,-6.447,-6.4529,-6.4598,-6.4681,-6.4746,-6.4887,-6.4898,-6.4971,-6.4951,-6.507,-6.4962,-6.4967,-6.4952,-6.4946,-6.4955,-6.5091,-6.5095,-6.5097,-6.51,0,-6.4365,-6.4359,-6.4433,-6.4508,-6.4568,-6.4625,-6.4677,-6.4722,-6.4706,-6.4768,-6.4857,-6.4908,-6.5007,-6.509,-6.5159,-6.5181,-6.5138,-6.5134,-6.5162,-6.5171,-6.5171,-6.5171,-6.4815,-6.5126,-6.5123,-6.5121,-6.512,-6.5119,-6.4567,-6.4645,-6.4689,-6.4773,-6.481,-6.4859,-6.4932,-6.4944,-6.5019,-6.5099,-6.5082,-6.5182,-6.5224,-6.5313,-6.5342,-6.5419,-6.5375,-6.5416,-6.5426,-6.5436,-6.5448,-6.5159,-6.5431,-6.543,-6.543,-6.5429,-6.5428,0,-6.4843,-6.4868,-6.4946,-6.502,-6.5086,-6.504,-6.5095,-6.5152,-6.5241,-6.5285,-6.535,-6.5451,-6.5531,-6.5547,-6.5623,-6.568,-6.5662,-6.5701,-6.5696,-6.5701,-6.5483,-6.5451,-6.5714,-6.5714,-6.5714,-6.5714,-6.5714,-6.5714,-6.4994,-6.5123,-6.5123,-6.5268,-6.5292,-6.5391,-6.5426,-6.547,-6.5504,-6.5621,-6.5687,-6.5697,-6.573,-6.5807,-6.5876,-6.5879,-6.5908,-6.5955,-6.595,-6.5745,-6.5717,-6.569,-6.5659,-6.5962,-6.5962,-6.6161,-6.6163,-6.6164]}]]